Roswell, NM

12:48 PM MDT on March 28, 2017 (GMT -0600)
Roswell Industrial

Weather History for KROW - May, 2013

Change the Weather History Date:

Wednesday, May 15, 2013

  Actual Average Record
Temperature  
Mean Temperature 76 °F 70 °F  
Max Temperature 94 °F 85 °F 102 °F (2000)
Min Temperature 58 °F 55 °F 34 °F (1967)
Degree Days  
Heating Degree Days 0 1  
Month to date heating degree days 51 22  
Since 1 July heating degree days 2984 3280  
Cooling Degree Days 11 6  
Month to date cooling degree days 30 61  
Year to date cooling degree days 96 101  
Growing Degree Days 25 (Base 50)    
Moisture  
Dew Point 38 °F    
Average Humidity 34    
Maximum Humidity 55    
Minimum Humidity 12    
Precipitation  
Precipitation T in 0.04 in 1.03 in (2008)
Month to date precipitation 0.03 0.59  
Year to date precipitation 0.47 2.51  
Sea Level Pressure  
Sea Level Pressure 29.67 in    
Wind  
Wind Speed 10 mph (WNW)    
Max Wind Speed 28 mph    
Max Gust Speed 41 mph    
Visibility 10 miles    
Events Rain    
T = Trace of Precipitation, MM = Missing Value Source: NWS Daily Summary

Daily Weather History Graph

Daily Weather History Graph

Search for Another Location

Airport or City:

Trip Planner

Search our weather history database for the weather conditions in past years. The results will help you decide how hot, cold, wet, or windy it might be!

Date:

Astronomy

May. 15, 2013 Rise Set
Actual Time 5:57 AM MDT 7:51 PM MDT
Civil Twilight 5:30 AM MDT 8:18 PM MDT
Nautical Twilight 4:57 AM MDT 8:52 PM MDT
Astronomical Twilight 4:22 AM MDT 9:27 PM MDT
Moon 10:33 AM MDT (5/15) No Moon Set
Length of Visible Light 14h 48m
Length of Day
13h 53m
Waxing Crescent, 27% of the Moon is Illuminated
May 15
Waxing Crescent
May 17
First Quarter
May 24
Full
May 31
Last Quarter
Jun 8
New

Hourly Weather History & Observations

Time (MDT) Temp. Dew Point Humidity Pressure Visibility Wind Dir Wind Speed Gust Speed Precip Events Conditions
12:51 AM 68.0 °F 39.9 °F 36% 29.78 in 10.0 mi South 25.3 mph 29.9 mph N/A   Scattered Clouds
1:51 AM 66.9 °F 42.1 °F 40% 29.77 in 10.0 mi SSE 16.1 mph - N/A   Scattered Clouds
2:51 AM 66.0 °F 44.1 °F 45% 29.74 in 10.0 mi South 13.8 mph - N/A   Clear
3:51 AM 63.0 °F 45.0 °F 52% 29.74 in 10.0 mi South 11.5 mph - N/A   Clear
4:51 AM 61.0 °F 44.1 °F 54% 29.72 in 10.0 mi SW 5.8 mph - N/A   Clear
5:51 AM 61.0 °F 37.9 °F 42% 29.72 in 10.0 mi Calm Calm - N/A   Clear
6:51 AM 61.0 °F 44.1 °F 54% 29.74 in 10.0 mi SE 6.9 mph - N/A   Clear
7:51 AM 70.0 °F 39.9 °F 33% 29.73 in 10.0 mi South 5.8 mph - N/A   Clear
8:51 AM 82.9 °F 36.0 °F 19% 29.71 in 10.0 mi West 15.0 mph 21.9 mph N/A   Clear
9:51 AM 84.0 °F 37.9 °F 19% 29.71 in 10.0 mi NNE 4.6 mph - N/A   Clear
10:51 AM 88.0 °F 36.0 °F 16% 29.70 in 10.0 mi West 19.6 mph 32.2 mph N/A   Clear
11:51 AM 89.1 °F 37.9 °F 16% 29.68 in 10.0 mi WNW 15.0 mph 23.0 mph N/A   Partly Cloudy
12:51 PM 90.0 °F 36.0 °F 15% 29.66 in 10.0 mi WNW 8.1 mph 17.3 mph N/A   Partly Cloudy
1:51 PM 91.9 °F 34.0 °F 13% 29.63 in 10.0 mi West 10.4 mph - N/A   Partly Cloudy
2:51 PM 93.0 °F 34.0 °F 12% 29.61 in 10.0 mi West 15.0 mph 21.9 mph N/A   Clear
3:51 PM 91.9 °F 34.0 °F 13% 29.59 in 10.0 mi NW 12.7 mph 21.9 mph N/A   Partly Cloudy
4:51 PM 90.0 °F 34.0 °F 14% 29.58 in 10.0 mi WNW 20.7 mph 27.6 mph N/A   Scattered Clouds
5:10 PM 84.2 °F 44.6 °F 25% 29.77 in 10.0 mi North 11.5 mph 41.4 mph 0.00 in Rain Light Rain
5:51 PM 88.0 °F 35.1 °F 15% 29.59 in 10.0 mi WNW 12.7 mph 20.7 mph 0.00 in   Partly Cloudy
6:51 PM 87.1 °F 39.0 °F 18% 29.58 in 10.0 mi North 6.9 mph - 0.00 in   Clear
7:51 PM 86.0 °F 36.0 °F 17% 29.60 in 10.0 mi NNW 9.2 mph - N/A   Clear
8:51 PM 82.0 °F 35.1 °F 18% 29.61 in 10.0 mi NW 8.1 mph - N/A   Clear
9:51 PM 79.0 °F 33.1 °F 19% 29.64 in 10.0 mi WNW 5.8 mph - N/A   Clear
10:51 PM 78.1 °F 34.0 °F 20% 29.64 in 10.0 mi NW 10.4 mph - N/A   Clear
11:51 PM 72.0 °F 36.0 °F 27% 29.64 in 10.0 mi NNW 3.5 mph - N/A   Clear